Location: Unspecified
(0.0000°N, 0.0000°E)
Time: 12:19:58
(UTC+00:00)

SEEDS - Pass Details

Date: 03 October 2021
Orbit: 585 x 601 km, 97.6° (Epoch: 15 October)

Event Time Altitude Azimuth Distance (km) Brightness Sun altitude
Rises 04:53:37 0° 347° (NNW) 2,833 ? -13.8°
Reaches altitude 10° 04:56:10 10° 332° (NNW) 1,933 ? -13.2°
Maximum altitude 04:59:24 22° 281° (WNW) 1,328 ? -12.4°
Drops below altitude 10° 05:02:39 10° 231° (SW) 1,937 ? -11.6°
Sets 05:05:13 0° 215° (SW) 2,840 ? -10.9°
